Time,TemperatureF,DewpointF,PressureIn,WindDirection,WindDirectionDegrees,WindSpeedMPH,WindSpeedGustMPH,Humidity,HourlyPrecipIn,Conditions,Clouds,dailyrainin,SoftwareType,DateUTC
2013-01-13 00:00:00,59.0,56.4,30.12,North,0,0.0,0.0,91,0.00,CLR,FEW,0.00,WeatherDisplay:10.37,2013-01-13 05:00:00,
2013-01-13 00:02:00,59.2,56.6,30.12,North,0,0.0,0.0,91,0.00,CLR,FEW,0.00,WeatherDisplay:10.37,2013-01-13 05:02:00,
2013-01-13 00:05:00,59.4,56.7,30.12,North,0,0.0,0.0,91,0.00,CLR,FEW,0.00,WeatherDisplay:10.37,2013-01-13 05:05:00,
2013-01-13 00:09:00,59.4,56.7,30.12,North,0,0.0,0.0,91,0.00,CLR,FEW,0.00,WeatherDisplay:10.37,2013-01-13 05:09:00,
2013-01-13 00:14:00,59.4,56.7,30.12,North,0,0.0,0.0,91,0.00,CLR,FEW,0.00,WeatherDisplay:10.37,2013-01-13 05:14:00,
2013-01-13 00:19:00,59.4,56.7,30.12,North,0,0.0,0.0,91,0.00,CLR,FEW,0.00,WeatherDisplay:10.37,2013-01-13 05:19:00,
2013-01-13 00:24:00,59.2,56.6,30.12,North,0,0.0,0.0,91,0.00,CLR,FEW,0.00,WeatherDisplay:10.37,2013-01-13 05:24:00,
2013-01-13 00:29:00,59.0,56.4,30.12,North,0,0.0,0.0,91,0.00,CLR,FEW,0.00,WeatherDisplay:10.37,2013-01-13 05:29:00,
2013-01-13 00:34:00,58.8,56.2,30.12,North,0,0.0,0.0,91,0.00,CLR,FEW,0.00,WeatherDisplay:10.37,2013-01-13 05:34:00,
2013-01-13 00:39:00,58.6,56.3,30.12,North,0,0.0,0.0,92,0.00,CLR,FEW,0.00,WeatherDisplay:10.37,2013-01-13 05:39:00,
2013-01-13 00:44:00,58.6,56.3,30.12,North,0,0.0,0.0,92,0.00,CLR,FEW,0.00,WeatherDisplay:10.37,2013-01-13 05:44:00,
2013-01-13 00:49:00,59.0,56.7,30.12,North,0,0.0,0.0,92,0.00,CLR,FEW,0.00,WeatherDisplay:10.37,2013-01-13 05:49:00,
2013-01-13 00:54:00,59.0,56.7,30.12,North,0,0.0,0.0,92,0.00,CLR,FEW,0.00,WeatherDisplay:10.37,2013-01-13 05:54:00,
2013-01-13 00:59:00,59.0,56.7,30.12,North,0,0.0,0.0,92,0.00,CLR,FEW,0.00,WeatherDisplay:10.37,2013-01-13 05:59:00,
2013-01-13 01:04:00,59.2,56.9,30.12,North,0,0.0,0.0,92,0.00,CLR,FEW,0.00,WeatherDisplay:10.37,2013-01-13 06:04:00,
2013-01-13 01:09:00,59.2,56.9,30.12,North,0,0.0,0.0,92,0.00,CLR,FEW,0.00,WeatherDisplay:10.37,2013-01-13 06:09:00,
2013-01-13 01:14:00,59.2,56.9,30.12,North,0,0.0,0.0,92,0.00,CLR,FEW,0.00,WeatherDisplay:10.37,2013-01-13 06:14:00,
2013-01-13 01:19:00,59.2,56.9,30.12,North,0,0.0,0.0,92,0.00,CLR,FEW,0.00,WeatherDisplay:10.37,2013-01-13 06:19:00,
2013-01-13 01:24:00,59.4,57.3,30.12,North,0,0.0,0.0,93,0.00,CLR,FEW,0.00,WeatherDisplay:10.37,2013-01-13 06:24:00,
2013-01-13 01:29:00,59.4,57.3,30.12,North,0,0.0,0.0,93,0.00,CLR,FEW,0.00,WeatherDisplay:10.37,2013-01-13 06:29:00,
2013-01-13 01:34:00,59.2,57.2,30.12,North,0,0.0,0.0,93,0.00,CLR,FEW,0.00,WeatherDisplay:10.37,2013-01-13 06:34:00,
2013-01-13 01:39:00,59.0,56.7,30.12,North,0,0.0,0.0,92,0.00,CLR,FEW,0.00,WeatherDisplay:10.37,2013-01-13 06:39:00,
2013-01-13 01:44:00,58.8,56.8,30.12,North,0,0.0,0.0,93,0.00,CLR,FEW,0.00,WeatherDisplay:10.37,2013-01-13 06:44:00,
2013-01-13 01:49:00,58.5,56.4,30.12,North,0,0.0,0.0,93,0.00,CLR,FEW,0.00,WeatherDisplay:10.37,2013-01-13 06:49:00,
2013-01-13 01:54:00,58.3,56.3,30.12,North,0,0.0,0.0,93,0.00,CLR,FEW,0.00,WeatherDisplay:10.37,2013-01-13 06:54:00,
2013-01-13 01:59:00,58.1,56.1,30.12,North,0,0.0,0.0,93,0.00,CLR,FEW,0.00,WeatherDisplay:10.37,2013-01-13 06:59:00,
2013-01-13 02:04:00,57.9,55.9,30.12,North,0,0.0,0.0,93,0.00,CLR,FEW,0.00,WeatherDisplay:10.37,2013-01-13 07:04:00,
2013-01-13 02:09:00,57.9,55.9,30.12,North,0,0.0,0.0,93,0.00,CLR,FEW,0.00,WeatherDisplay:10.37,2013-01-13 07:09:00,
2013-01-13 02:14:00,58.1,56.4,30.12,North,0,0.0,0.0,94,0.00,CLR,FEW,0.00,WeatherDisplay:10.37,2013-01-13 07:14:00,
2013-01-13 02:19:00,58.1,56.4,30.12,North,0,0.0,0.0,94,0.00,CLR,FEW,0.00,WeatherDisplay:10.37,2013-01-13 07:19:00,
2013-01-13 02:24:00,58.1,56.4,30.12,North,0,0.0,0.0,94,0.00,CLR,FEW,0.00,WeatherDisplay:10.37,2013-01-13 07:24:00,
2013-01-13 02:29:00,58.5,56.7,30.12,North,0,0.0,0.0,94,0.00,CLR,FEW,0.00,WeatherDisplay:10.37,2013-01-13 07:29:00,
2013-01-13 02:34:00,58.8,57.4,30.12,North,0,0.0,0.0,95,0.00,CLR,FEW,0.00,WeatherDisplay:10.37,2013-01-13 07:34:00,
2013-01-13 02:39:00,59.2,57.5,30.12,North,0,0.0,0.0,94,0.00,CLR,FEW,0.00,WeatherDisplay:10.37,2013-01-13 07:39:00,
2013-01-13 02:44:00,59.2,57.5,30.09,North,0,0.0,0.0,94,0.00,CLR,FEW,0.00,WeatherDisplay:10.37,2013-01-13 07:44:00,
2013-01-13 02:49:00,59.5,58.1,30.09,North,0,0.0,0.0,95,0.00,CLR,FEW,0.00,WeatherDisplay:10.37,2013-01-13 07:49:00,
2013-01-13 02:54:00,59.7,58.3,30.09,North,0,0.0,0.0,95,0.00,CLR,FEW,0.00,WeatherDisplay:10.37,2013-01-13 07:54:00,
2013-01-13 02:59:00,59.7,58.3,30.12,North,0,0.0,0.0,95,0.00,CLR,FEW,0.00,WeatherDisplay:10.37,2013-01-13 07:59:00,
2013-01-13 03:04:00,59.9,58.5,30.12,North,0,0.0,0.0,95,0.00,CLR,FEW,0.00,WeatherDisplay:10.37,2013-01-13 08:04:00,
2013-01-13 03:09:00,60.1,58.6,30.12,North,0,0.0,0.0,95,0.00,CLR,FEW,0.00,WeatherDisplay:10.37,2013-01-13 08:09:00,
2013-01-13 03:14:00,60.3,59.1,30.09,North,0,0.0,0.0,96,0.00,CLR,FEW,0.00,WeatherDisplay:10.37,2013-01-13 08:14:00,
2013-01-13 03:19:00,60.6,59.5,30.09,North,0,0.0,0.0,96,0.00,CLR,FEW,0.00,WeatherDisplay:10.37,2013-01-13 08:19:00,
2013-01-13 03:24:00,60.8,59.7,30.09,North,0,0.0,0.0,96,0.00,CLR,FEW,0.00,WeatherDisplay:10.37,2013-01-13 08:24:00,
2013-01-13 03:29:00,61.0,59.8,30.12,North,0,0.0,0.0,96,0.00,CLR,FEW,0.00,WeatherDisplay:10.37,2013-01-13 08:29:00,
2013-01-13 03:34:00,61.0,59.8,30.12,North,0,0.0,0.0,96,0.00,CLR,FEW,0.00,WeatherDisplay:10.37,2013-01-13 08:34:00,
2013-01-13 03:39:00,61.0,59.8,30.12,North,0,0.0,0.0,96,0.00,CLR,FEW,0.00,WeatherDisplay:10.37,2013-01-13 08:39:00,
2013-01-13 03:44:00,61.0,59.8,30.09,North,0,0.0,0.0,96,0.00,CLR,FEW,0.00,WeatherDisplay:10.37,2013-01-13 08:44:00,
2013-01-13 03:49:00,61.0,59.8,30.09,North,0,0.0,0.0,96,0.00,CLR,FEW,0.00,WeatherDisplay:10.37,2013-01-13 08:49:00,
2013-01-13 03:54:00,61.0,59.8,30.09,North,0,0.0,0.0,96,0.00,CLR,FEW,0.00,WeatherDisplay:10.37,2013-01-13 08:54:00,
2013-01-13 03:59:00,61.0,59.8,30.09,North,0,0.0,0.0,96,0.00,CLR,FEW,0.00,WeatherDisplay:10.37,2013-01-13 08:59:00,
2013-01-13 04:04:00,61.0,59.8,30.09,North,0,0.0,0.0,96,0.00,CLR,FEW,0.00,WeatherDisplay:10.37,2013-01-13 09:04:00,
2013-01-13 04:09:00,61.0,59.8,30.09,North,0,0.0,0.0,96,0.00,CLR,FEW,0.00,WeatherDisplay:10.37,2013-01-13 09:09:00,
2013-01-13 04:14:00,61.0,59.8,30.09,North,0,0.0,0.0,96,0.00,CLR,FEW,0.00,WeatherDisplay:10.37,2013-01-13 09:14:00,
2013-01-13 04:19:00,61.0,59.8,30.09,North,0,0.0,0.0,96,0.00,CLR,FEW,0.00,WeatherDisplay:10.37,2013-01-13 09:19:00,
2013-01-13 04:24:00,61.2,60.0,30.09,North,0,0.0,0.0,96,0.00,CLR,FEW,0.00,WeatherDisplay:10.37,2013-01-13 09:24:00,
2013-01-13 04:29:00,61.2,60.0,30.09,North,0,0.0,0.0,96,0.00,CLR,FEW,0.00,WeatherDisplay:10.37,2013-01-13 09:29:00,
2013-01-13 04:34:00,61.2,60.0,30.09,North,0,0.0,0.0,96,0.00,CLR,FEW,0.00,WeatherDisplay:10.37,2013-01-13 09:34:00,
2013-01-13 04:39:00,61.2,60.0,30.09,North,0,0.0,0.0,96,0.00,CLR,FEW,0.00,WeatherDisplay:10.37,2013-01-13 09:39:00,
2013-01-13 04:44:00,61.2,60.0,30.09,North,0,0.0,0.0,96,0.00,CLR,FEW,0.00,WeatherDisplay:10.37,2013-01-13 09:44:00,
2013-01-13 04:49:00,61.2,60.0,30.09,North,0,0.0,0.0,96,0.00,CLR,FEW,0.00,WeatherDisplay:10.37,2013-01-13 09:49:00,
2013-01-13 04:54:00,61.0,59.8,30.09,North,0,0.0,0.0,96,0.00,CLR,FEW,0.00,WeatherDisplay:10.37,2013-01-13 09:54:00,
2013-01-13 04:59:00,61.0,59.8,30.09,North,0,0.0,0.0,96,0.00,CLR,FEW,0.00,WeatherDisplay:10.37,2013-01-13 09:59:00,
2013-01-13 05:04:00,60.6,59.5,30.09,North,0,0.0,0.0,96,0.00,CLR,FEW,0.00,WeatherDisplay:10.37,2013-01-13 10:04:00,
2013-01-13 05:09:00,60.1,58.6,30.09,North,0,0.0,0.0,95,0.00,CLR,FEW,0.00,WeatherDisplay:10.37,2013-01-13 10:09:00,
2013-01-13 05:14:00,59.5,58.1,30.09,North,0,0.0,0.0,95,0.00,CLR,FEW,0.00,WeatherDisplay:10.37,2013-01-13 10:14:00,
2013-01-13 05:19:00,59.4,57.9,30.09,North,0,0.0,0.0,95,0.00,CLR,FEW,0.00,WeatherDisplay:10.37,2013-01-13 10:19:00,
2013-01-13 05:24:00,58.8,57.4,30.09,North,0,0.0,0.0,95,0.00,CLR,FEW,0.00,WeatherDisplay:10.37,2013-01-13 10:24:00,
2013-01-13 05:29:00,58.5,57.0,30.09,North,0,0.0,0.0,95,0.00,CLR,FEW,0.00,WeatherDisplay:10.37,2013-01-13 10:29:00,
2013-01-13 05:34:00,58.3,56.9,30.09,North,0,0.0,0.0,95,0.00,CLR,FEW,0.00,WeatherDisplay:10.37,2013-01-13 10:34:00,
2013-01-13 05:39:00,57.9,56.5,30.09,North,0,0.0,0.0,95,0.00,CLR,FEW,0.00,WeatherDisplay:10.37,2013-01-13 10:39:00,
2013-01-13 05:44:00,57.9,56.8,30.09,North,0,0.0,0.0,96,0.00,CLR,FEW,0.00,WeatherDisplay:10.37,2013-01-13 10:44:00,
2013-01-13 05:49:00,57.7,56.6,30.09,North,0,0.0,0.0,96,0.00,CLR,FEW,0.00,WeatherDisplay:10.37,2013-01-13 10:49:00,
2013-01-13 05:54:00,57.6,56.4,30.09,North,0,0.0,0.0,96,0.00,CLR,FEW,0.00,WeatherDisplay:10.37,2013-01-13 10:54:00,
2013-01-13 05:59:00,57.4,56.0,30.09,North,0,0.0,0.0,95,0.00,CLR,FEW,0.00,WeatherDisplay:10.37,2013-01-13 10:59:00,
2013-01-13 06:04:00,57.2,56.1,30.09,North,0,0.0,0.0,96,0.00,CLR,FEW,0.00,WeatherDisplay:10.37,2013-01-13 11:04:00,
2013-01-13 06:09:00,57.7,56.9,30.09,North,0,0.0,0.0,97,0.00,CLR,FEW,0.00,WeatherDisplay:10.37,2013-01-13 11:09:00,
2013-01-13 06:14:00,58.8,58.0,30.12,North,0,0.0,0.0,97,0.00,CLR,FEW,0.00,WeatherDisplay:10.37,2013-01-13 11:14:00,
2013-01-13 06:19:00,59.4,58.5,30.12,North,0,0.0,0.0,97,0.00,CLR,FEW,0.00,WeatherDisplay:10.37,2013-01-13 11:19:00,
2013-01-13 06:24:00,59.7,58.9,30.12,North,0,0.0,0.0,97,0.00,CLR,FEW,0.00,WeatherDisplay:10.37,2013-01-13 11:24:00,
2013-01-13 06:29:00,59.2,58.0,30.12,North,0,0.0,0.0,96,0.00,CLR,FEW,0.00,WeatherDisplay:10.37,2013-01-13 11:29:00,
2013-01-13 06:34:00,58.8,57.7,30.12,North,0,0.0,0.0,96,0.00,CLR,FEW,0.00,WeatherDisplay:10.37,2013-01-13 11:34:00,
2013-01-13 06:39:00,59.0,57.9,30.12,North,0,0.0,0.0,96,0.00,CLR,FEW,0.00,WeatherDisplay:10.37,2013-01-13 11:39:00,
2013-01-13 06:44:00,59.4,58.5,30.12,North,0,0.0,0.0,97,0.00,CLR,FEW,0.00,WeatherDisplay:10.37,2013-01-13 11:44:00,
2013-01-13 06:49:00,59.7,58.9,30.12,North,0,0.0,0.0,97,0.00,CLR,FEW,0.00,WeatherDisplay:10.37,2013-01-13 11:49:00,
2013-01-13 06:54:00,59.9,59.0,30.12,North,0,0.0,0.0,97,0.00,CLR,FEW,0.00,WeatherDisplay:10.37,2013-01-13 11:54:00,
2013-01-13 06:59:00,60.1,59.2,30.12,North,0,0.0,0.0,97,0.00,CLR,FEW,0.00,WeatherDisplay:10.37,2013-01-13 11:59:00,
2013-01-13 07:04:00,60.3,59.4,30.12,North,0,0.0,0.0,97,0.00,CLR,FEW,0.00,WeatherDisplay:10.37,2013-01-13 12:04:00,
2013-01-13 07:09:00,60.3,59.4,30.12,North,0,0.0,0.0,97,0.00,CLR,FEW,0.00,WeatherDisplay:10.37,2013-01-13 12:09:00,
2013-01-13 07:14:00,60.3,59.4,30.12,North,0,0.0,0.0,97,0.00,CLR,FEW,0.00,WeatherDisplay:10.37,2013-01-13 12:14:00,
2013-01-13 07:19:00,60.4,59.6,30.12,North,0,0.0,0.0,97,0.00,CLR,FEW,0.00,WeatherDisplay:10.37,2013-01-13 12:19:00,
2013-01-13 07:24:00,60.4,59.6,30.12,North,0,0.0,0.0,97,0.00,CLR,FEW,0.00,WeatherDisplay:10.37,2013-01-13 12:24:00,
2013-01-13 07:29:00,60.4,59.6,30.12,North,0,0.0,0.0,97,0.00,CLR,FEW,0.00,WeatherDisplay:10.37,2013-01-13 12:29:00,
2013-01-13 07:34:00,60.6,59.8,30.12,North,0,0.0,0.0,97,0.00,CLR,FEW,0.00,WeatherDisplay:10.37,2013-01-13 12:34:00,
2013-01-13 07:39:00,60.8,59.9,30.12,North,0,0.0,0.0,97,0.00,CLR,FEW,0.00,WeatherDisplay:10.37,2013-01-13 12:39:00,
2013-01-13 07:45:00,61.2,60.3,30.15,North,0,0.0,0.0,97,0.00,CLR,FEW,0.00,WeatherDisplay:10.37,2013-01-13 12:45:00,
2013-01-13 07:50:00,61.2,60.3,30.15,North,0,0.0,0.0,97,0.00,CLR,FEW,0.00,WeatherDisplay:10.37,2013-01-13 12:50:00,
2013-01-13 07:55:00,61.3,60.5,30.15,North,0,0.0,0.0,97,0.00,CLR,FEW,0.00,WeatherDisplay:10.37,2013-01-13 12:55:00,
2013-01-13 08:00:00,61.3,60.5,30.15,North,0,0.0,0.0,97,0.00,CLR,FEW,0.00,WeatherDisplay:10.37,2013-01-13 13:00:00,
2013-01-13 08:06:00,61.3,60.5,30.15,North,0,0.0,0.0,97,0.00,CLR,FEW,0.00,WeatherDisplay:10.37,2013-01-13 13:06:00,
2013-01-13 08:11:00,61.5,60.7,30.15,North,0,0.0,0.0,97,0.00,CLR,FEW,0.00,WeatherDisplay:10.37,2013-01-13 13:11:00,
2013-01-13 08:16:00,61.7,60.8,30.15,North,0,0.0,0.0,97,0.00,CLR,FEW,0.00,WeatherDisplay:10.37,2013-01-13 13:16:00,
2013-01-13 08:21:00,62.4,61.6,30.15,North,0,0.0,0.0,97,0.00,CLR,FEW,0.00,WeatherDisplay:10.37,2013-01-13 13:21:00,
2013-01-13 08:26:00,61.7,60.8,30.15,North,0,0.0,0.0,97,0.00,CLR,FEW,0.00,WeatherDisplay:10.37,2013-01-13 13:26:00,
2013-01-13 08:31:00,61.2,60.0,30.15,North,0,0.0,0.0,96,0.00,CLR,FEW,0.00,WeatherDisplay:10.37,2013-01-13 13:31:00,
2013-01-13 08:37:00,61.2,60.0,30.15,North,0,0.0,0.0,96,0.00,CLR,FEW,0.00,WeatherDisplay:10.37,2013-01-13 13:37:00,
2013-01-13 08:43:00,61.2,60.3,30.15,North,0,0.0,0.0,97,0.00,CLR,FEW,0.00,WeatherDisplay:10.37,2013-01-13 13:43:00,
2013-01-13 08:48:00,61.5,60.7,30.15,North,0,0.0,0.0,97,0.00,CLR,FEW,0.00,WeatherDisplay:10.37,2013-01-13 13:48:00,
2013-01-13 08:53:00,61.9,61.0,30.15,North,0,0.0,0.0,97,0.00,CLR,FEW,0.00,WeatherDisplay:10.37,2013-01-13 13:53:00,
2013-01-13 08:58:00,62.4,61.8,30.15,North,0,0.0,0.0,98,0.00,CLR,FEW,0.00,WeatherDisplay:10.37,2013-01-13 13:58:00,
2013-01-13 09:03:00,63.5,62.9,30.15,North,0,0.0,0.0,98,0.00,CLR,FEW,0.00,WeatherDisplay:10.37,2013-01-13 14:03:00,
2013-01-13 09:09:00,64.8,64.2,30.15,North,0,0.0,0.0,98,0.00,CLR,FEW,0.00,WeatherDisplay:10.37,2013-01-13 14:09:00,
2013-01-13 09:14:00,65.5,64.9,30.15,North,0,0.0,0.0,98,0.00,CLR,FEW,0.00,WeatherDisplay:10.37,2013-01-13 14:14:00,
2013-01-13 09:19:00,66.4,65.5,30.15,North,0,0.0,0.0,97,0.00,CLR,FEW,0.00,WeatherDisplay:10.37,2013-01-13 14:19:00,
2013-01-13 09:24:00,66.6,65.7,30.15,North,0,0.0,0.0,97,0.00,CLR,FEW,0.00,WeatherDisplay:10.37,2013-01-13 14:24:00,
2013-01-13 09:29:00,67.6,66.8,30.18,North,0,0.0,0.0,97,0.00,CLR,FEW,0.00,WeatherDisplay:10.37,2013-01-13 14:29:00,
2013-01-13 09:34:00,68.4,67.2,30.18,North,0,0.0,0.0,96,0.00,CLR,FEW,0.00,WeatherDisplay:10.37,2013-01-13 14:34:00,
2013-01-13 09:39:00,68.9,66.5,30.18,North,0,0.0,0.0,92,0.00,CLR,FEW,0.00,WeatherDisplay:10.37,2013-01-13 14:39:00,
2013-01-13 09:44:00,69.1,65.7,30.18,North,0,0.0,0.0,89,0.00,CLR,FEW,0.00,WeatherDisplay:10.37,2013-01-13 14:44:00,
2013-01-13 09:50:00,69.3,61.7,30.18,North,0,0.0,0.0,77,0.00,CLR,FEW,0.00,WeatherDisplay:10.37,2013-01-13 14:50:00,
2013-01-13 09:56:00,69.4,55.9,30.18,North,0,0.0,0.0,62,0.00,CLR,FEW,0.00,WeatherDisplay:10.37,2013-01-13 14:56:00,
2013-01-13 10:01:00,70.2,57.0,30.18,North,0,0.0,0.0,63,0.00,CLR,FEW,0.00,WeatherDisplay:10.37,2013-01-13 15:01:00,
2013-01-13 10:06:00,70.5,55.5,30.18,North,0,0.0,0.0,59,0.00,CLR,FEW,0.00,WeatherDisplay:10.37,2013-01-13 15:06:00,
2013-01-13 10:11:00,71.1,54.6,30.18,North,0,0.0,0.0,56,0.00,CLR,FEW,0.00,WeatherDisplay:10.37,2013-01-13 15:11:00,
2013-01-13 10:16:00,71.6,53.0,30.15,North,0,0.0,0.0,52,0.00,CLR,FEW,0.00,WeatherDisplay:10.37,2013-01-13 15:16:00,
2013-01-13 10:21:00,71.8,52.1,30.15,North,0,0.0,0.0,50,0.00,CLR,FEW,0.00,WeatherDisplay:10.37,2013-01-13 15:21:00,
2013-01-13 10:26:00,72.1,53.0,30.15,North,0,0.0,0.0,51,0.00,CLR,FEW,0.00,WeatherDisplay:10.37,2013-01-13 15:26:00,
2013-01-13 10:31:00,73.0,52.2,30.15,North,0,0.0,0.0,48,0.00,CLR,FEW,0.00,WeatherDisplay:10.37,2013-01-13 15:31:00,
2013-01-13 10:36:00,73.6,50.9,30.15,North,0,0.0,0.0,45,0.00,CLR,FEW,0.00,WeatherDisplay:10.37,2013-01-13 15:36:00,
2013-01-13 10:41:00,74.3,51.0,30.15,North,0,0.0,0.0,44,0.00,CLR,FEW,0.00,WeatherDisplay:10.37,2013-01-13 15:41:00,
2013-01-13 10:46:00,74.3,49.7,30.15,North,0,0.0,0.0,42,0.00,CLR,FEW,0.00,WeatherDisplay:10.37,2013-01-13 15:46:00,
2013-01-13 10:51:00,72.1,47.1,30.15,North,0,0.0,0.0,41,0.00,CLR,FEW,0.00,WeatherDisplay:10.37,2013-01-13 15:51:00,
2013-01-13 10:56:00,70.3,48.0,30.15,North,0,0.0,0.0,45,0.00,CLR,FEW,0.00,WeatherDisplay:10.37,2013-01-13 15:56:00,
2013-01-13 11:01:00,69.6,50.7,30.15,North,0,0.0,0.0,51,0.00,CLR,FEW,0.00,WeatherDisplay:10.37,2013-01-13 16:01:00,
2013-01-13 11:06:00,69.1,48.6,30.15,North,0,0.0,0.0,48,0.00,CLR,FEW,0.00,WeatherDisplay:10.37,2013-01-13 16:06:00,
2013-01-13 11:11:00,67.1,48.4,30.15,North,0,0.0,0.0,51,0.00,CLR,FEW,0.00,WeatherDisplay:10.37,2013-01-13 16:11:00,
2013-01-13 11:16:00,66.4,51.2,30.15,North,0,0.0,0.0,58,0.00,CLR,FEW,0.00,WeatherDisplay:10.37,2013-01-13 16:16:00,
2013-01-13 11:21:00,66.2,52.3,30.15,North,0,0.0,0.0,61,0.00,CLR,FEW,0.00,WeatherDisplay:10.37,2013-01-13 16:21:00,
2013-01-13 11:26:00,66.2,52.3,30.15,North,0,0.0,0.0,61,0.00,CLR,FEW,0.00,WeatherDisplay:10.37,2013-01-13 16:26:00,
2013-01-13 11:31:00,66.6,54.0,30.15,North,0,0.0,0.0,64,0.00,CLR,FEW,0.00,WeatherDisplay:10.37,2013-01-13 16:31:00,
2013-01-13 11:36:00,67.3,55.1,30.15,North,0,0.0,0.0,65,0.00,CLR,FEW,0.00,WeatherDisplay:10.37,2013-01-13 16:36:00,
2013-01-13 11:41:00,68.0,55.4,30.15,North,0,0.0,0.0,64,0.00,CLR,FEW,0.00,WeatherDisplay:10.37,2013-01-13 16:41:00,
2013-01-13 11:46:00,68.9,55.8,30.12,North,0,0.0,0.0,63,0.00,CLR,FEW,0.00,WeatherDisplay:10.37,2013-01-13 16:46:00,
2013-01-13 11:51:00,69.8,54.8,30.12,North,0,0.0,0.0,59,0.00,CLR,FEW,0.00,WeatherDisplay:10.37,2013-01-13 16:51:00,
2013-01-13 11:56:00,70.9,53.9,30.12,North,0,0.0,0.0,55,0.00,CLR,FEW,0.00,WeatherDisplay:10.37,2013-01-13 16:56:00,
2013-01-13 12:01:00,71.2,51.1,30.12,North,0,0.0,0.0,49,0.00,CLR,FEW,0.00,WeatherDisplay:10.37,2013-01-13 17:01:00,
2013-01-13 12:06:00,71.1,50.9,30.12,North,0,0.0,0.0,49,0.00,CLR,FEW,0.00,WeatherDisplay:10.37,2013-01-13 17:06:00,
2013-01-13 12:11:00,71.1,51.5,30.12,North,0,0.0,0.0,50,0.00,CLR,FEW,0.00,WeatherDisplay:10.37,2013-01-13 17:11:00,
2013-01-13 12:16:00,71.8,51.0,30.12,North,0,0.0,0.0,48,0.00,CLR,FEW,0.00,WeatherDisplay:10.37,2013-01-13 17:16:00,
2013-01-13 12:21:00,71.8,48.7,30.12,North,0,0.0,0.0,44,0.00,CLR,FEW,0.00,WeatherDisplay:10.37,2013-01-13 17:21:00,
2013-01-13 12:26:00,70.7,49.5,30.12,North,0,0.0,0.0,47,0.00,CLR,FEW,0.00,WeatherDisplay:10.37,2013-01-13 17:26:00,
2013-01-13 12:31:00,70.2,50.6,30.12,North,0,0.0,0.0,50,0.00,CLR,FEW,0.00,WeatherDisplay:10.37,2013-01-13 17:31:00,
2013-01-13 12:36:00,70.2,51.2,30.12,North,0,0.0,0.0,51,0.00,CLR,FEW,0.00,WeatherDisplay:10.37,2013-01-13 17:36:00,
2013-01-13 12:41:00,70.5,51.5,30.12,North,0,0.0,0.0,51,0.00,CLR,FEW,0.00,WeatherDisplay:10.37,2013-01-13 17:41:00,
2013-01-13 12:47:00,71.2,51.1,30.09,North,0,0.0,0.0,49,0.00,CLR,FEW,0.00,WeatherDisplay:10.37,2013-01-13 17:47:00,
2013-01-13 12:52:00,72.0,50.6,30.09,North,0,0.0,0.0,47,0.00,CLR,FEW,0.00,WeatherDisplay:10.37,2013-01-13 17:52:00,
2013-01-13 12:57:00,72.1,50.8,30.09,North,0,0.0,0.0,47,0.00,CLR,FEW,0.00,WeatherDisplay:10.37,2013-01-13 17:57:00,
2013-01-13 13:02:00,72.1,50.2,30.09,North,0,0.0,0.0,46,0.00,CLR,FEW,0.00,WeatherDisplay:10.37,2013-01-13 18:02:00,
2013-01-13 13:07:00,72.0,50.6,30.09,North,0,0.0,0.0,47,0.00,CLR,FEW,0.00,WeatherDisplay:10.37,2013-01-13 18:07:00,
2013-01-13 13:12:00,71.4,51.3,30.09,North,0,0.0,0.0,49,0.00,CLR,FEW,0.00,WeatherDisplay:10.37,2013-01-13 18:12:00,
2013-01-13 13:17:00,71.1,50.9,30.09,North,0,0.0,0.0,49,0.00,CLR,FEW,0.00,WeatherDisplay:10.37,2013-01-13 18:17:00,
2013-01-13 13:22:00,71.1,51.5,30.09,North,0,0.0,0.0,50,0.00,CLR,FEW,0.00,WeatherDisplay:10.37,2013-01-13 18:22:00,
2013-01-13 13:27:00,71.4,51.3,30.09,North,0,0.0,0.0,49,0.00,CLR,FEW,0.00,WeatherDisplay:10.37,2013-01-13 18:27:00,
2013-01-13 13:32:00,71.4,50.7,30.09,North,0,0.0,0.0,48,0.00,CLR,FEW,0.00,WeatherDisplay:10.37,2013-01-13 18:32:00,
2013-01-13 13:37:00,71.6,49.7,30.09,North,0,0.0,0.0,46,0.00,CLR,FEW,0.00,WeatherDisplay:10.37,2013-01-13 18:37:00,
2013-01-13 13:42:00,70.7,48.3,30.09,North,0,0.0,0.0,45,0.00,CLR,FEW,0.00,WeatherDisplay:10.37,2013-01-13 18:42:00,
2013-01-13 13:47:00,69.3,47.6,30.09,North,0,0.0,0.0,46,0.00,CLR,FEW,0.00,WeatherDisplay:10.37,2013-01-13 18:47:00,
2013-01-13 13:52:00,67.6,47.8,30.09,North,0,0.0,0.0,49,0.00,CLR,FEW,0.00,WeatherDisplay:10.37,2013-01-13 18:52:00,
2013-01-13 13:57:00,66.2,48.0,30.09,North,0,0.0,0.0,52,0.00,CLR,FEW,0.00,WeatherDisplay:10.37,2013-01-13 18:57:00,
2013-01-13 14:02:00,66.0,51.3,30.09,North,0,0.0,0.0,59,0.00,CLR,FEW,0.00,WeatherDisplay:10.37,2013-01-13 19:02:00,
2013-01-13 14:07:00,66.0,52.2,30.09,North,0,0.0,0.0,61,0.00,CLR,FEW,0.00,WeatherDisplay:10.37,2013-01-13 19:07:00,
2013-01-13 14:12:00,65.8,51.6,30.09,North,0,0.0,0.0,60,0.00,CLR,FEW,0.00,WeatherDisplay:10.37,2013-01-13 19:12:00,
2013-01-13 14:17:00,65.7,52.3,30.09,North,0,0.0,0.0,62,0.00,CLR,FEW,0.00,WeatherDisplay:10.37,2013-01-13 19:17:00,
2013-01-13 14:22:00,65.5,52.1,30.09,North,0,0.0,0.0,62,0.00,CLR,FEW,0.00,WeatherDisplay:10.37,2013-01-13 19:22:00,
2013-01-13 14:27:00,65.5,53.0,30.09,North,0,0.0,0.0,64,0.00,CLR,FEW,0.00,WeatherDisplay:10.37,2013-01-13 19:27:00,
2013-01-13 14:32:00,65.8,53.3,30.09,North,0,0.0,0.0,64,0.00,CLR,FEW,0.00,WeatherDisplay:10.37,2013-01-13 19:32:00,
2013-01-13 14:37:00,66.4,53.0,30.09,North,0,0.0,0.0,62,0.00,CLR,FEW,0.00,WeatherDisplay:10.37,2013-01-13 19:37:00,
2013-01-13 14:42:00,67.1,51.8,30.09,North,0,0.0,0.0,58,0.00,CLR,FEW,0.00,WeatherDisplay:10.37,2013-01-13 19:42:00,
2013-01-13 14:47:00,67.6,50.9,30.09,North,0,0.0,0.0,55,0.00,CLR,FEW,0.00,WeatherDisplay:10.37,2013-01-13 19:47:00,
2013-01-13 14:52:00,67.6,49.4,30.09,North,0,0.0,0.0,52,0.00,CLR,FEW,0.00,WeatherDisplay:10.37,2013-01-13 19:52:00,
2013-01-13 14:57:00,67.3,49.6,30.09,North,0,0.0,0.0,53,0.00,CLR,FEW,0.00,WeatherDisplay:10.37,2013-01-13 19:57:00,
2013-01-13 15:02:00,67.3,50.1,30.09,North,0,0.0,0.0,54,0.00,CLR,FEW,0.00,WeatherDisplay:10.37,2013-01-13 20:02:00,
2013-01-13 15:07:00,67.1,49.9,30.09,North,0,0.0,0.0,54,0.00,CLR,FEW,0.00,WeatherDisplay:10.37,2013-01-13 20:07:00,
2013-01-13 15:12:00,66.2,49.1,30.09,North,0,0.0,0.0,54,0.00,CLR,FEW,0.00,WeatherDisplay:10.37,2013-01-13 20:12:00,
2013-01-13 15:17:00,65.5,50.8,30.09,North,0,0.0,0.0,59,0.00,CLR,FEW,0.00,WeatherDisplay:10.37,2013-01-13 20:17:00,
2013-01-13 15:22:00,64.9,51.2,30.09,North,0,0.0,0.0,61,0.00,CLR,FEW,0.00,WeatherDisplay:10.37,2013-01-13 20:22:00,
2013-01-13 15:27:00,64.6,51.7,30.09,North,0,0.0,0.0,63,0.00,CLR,FEW,0.00,WeatherDisplay:10.37,2013-01-13 20:27:00,
2013-01-13 15:32:00,64.2,52.2,30.09,North,0,0.0,0.0,65,0.00,CLR,FEW,0.00,WeatherDisplay:10.37,2013-01-13 20:32:00,
2013-01-13 15:37:00,64.2,52.6,30.09,North,0,0.0,0.0,66,0.00,CLR,FEW,0.00,WeatherDisplay:10.37,2013-01-13 20:37:00,
2013-01-13 15:42:00,64.4,53.2,30.09,North,0,0.0,0.0,67,0.00,CLR,FEW,0.00,WeatherDisplay:10.37,2013-01-13 20:42:00,
2013-01-13 15:47:00,64.4,54.4,30.09,North,0,0.0,0.0,70,0.00,CLR,FEW,0.00,WeatherDisplay:10.37,2013-01-13 20:47:00,
2013-01-13 15:52:00,64.2,54.6,30.09,North,0,0.0,0.0,71,0.00,CLR,FEW,0.00,WeatherDisplay:10.37,2013-01-13 20:52:00,
2013-01-13 15:57:00,64.2,55.0,30.12,North,0,0.0,0.0,72,0.00,CLR,FEW,0.00,WeatherDisplay:10.37,2013-01-13 20:57:00,
2013-01-13 16:02:00,64.4,55.6,30.12,North,0,0.0,0.0,73,0.00,CLR,FEW,0.00,WeatherDisplay:10.37,2013-01-13 21:02:00,
2013-01-13 16:07:00,64.0,54.8,30.12,North,0,0.0,0.0,72,0.00,CLR,FEW,0.00,WeatherDisplay:10.37,2013-01-13 21:07:00,
2013-01-13 16:12:00,63.9,55.0,30.12,North,0,0.0,0.0,73,0.00,CLR,FEW,0.00,WeatherDisplay:10.37,2013-01-13 21:12:00,
2013-01-13 16:17:00,63.9,55.4,30.12,North,0,0.0,0.0,74,0.00,CLR,FEW,0.00,WeatherDisplay:10.37,2013-01-13 21:17:00,
2013-01-13 16:22:00,64.0,56.3,30.12,North,0,0.0,0.0,76,0.00,CLR,FEW,0.00,WeatherDisplay:10.37,2013-01-13 21:22:00,
2013-01-13 16:27:00,64.0,56.7,30.12,North,0,0.0,0.0,77,0.00,CLR,FEW,0.00,WeatherDisplay:10.37,2013-01-13 21:27:00,
2013-01-13 16:32:00,64.0,56.7,30.12,North,0,0.0,0.0,77,0.00,CLR,FEW,0.00,WeatherDisplay:10.37,2013-01-13 21:32:00,
2013-01-13 16:37:00,64.0,56.7,30.12,North,0,0.0,0.0,77,0.00,CLR,FEW,0.00,WeatherDisplay:10.37,2013-01-13 21:37:00,
2013-01-13 16:42:00,64.0,56.7,30.12,North,0,0.0,0.0,77,0.00,CLR,FEW,0.00,WeatherDisplay:10.37,2013-01-13 21:42:00,
2013-01-13 16:47:00,64.0,56.7,30.12,North,0,0.0,0.0,77,0.00,CLR,FEW,0.00,WeatherDisplay:10.37,2013-01-13 21:47:00,
2013-01-13 16:52:00,63.7,56.7,30.12,North,0,0.0,0.0,78,0.00,CLR,FEW,0.00,WeatherDisplay:10.37,2013-01-13 21:52:00,
2013-01-13 16:57:00,63.3,56.3,30.12,North,0,0.0,0.0,78,0.00,CLR,FEW,0.00,WeatherDisplay:10.37,2013-01-13 21:57:00,
2013-01-13 17:02:00,63.0,56.3,30.12,North,0,0.0,0.0,79,0.00,CLR,FEW,0.00,WeatherDisplay:10.37,2013-01-13 22:02:00,
2013-01-13 17:07:00,62.6,56.3,30.12,North,0,0.0,0.0,80,0.00,CLR,FEW,0.00,WeatherDisplay:10.37,2013-01-13 22:07:00,
2013-01-13 17:12:00,62.4,56.5,30.12,North,0,0.0,0.0,81,0.00,CLR,FEW,0.00,WeatherDisplay:10.37,2013-01-13 22:12:00,
2013-01-13 17:17:00,62.2,56.7,30.12,North,0,0.0,0.0,82,0.00,CLR,FEW,0.00,WeatherDisplay:10.37,2013-01-13 22:17:00,
2013-01-13 17:22:00,62.1,56.5,30.12,North,0,0.0,0.0,82,0.00,CLR,FEW,0.00,WeatherDisplay:10.37,2013-01-13 22:22:00,
2013-01-13 17:27:00,61.9,56.3,30.12,North,0,0.0,0.0,82,0.00,CLR,FEW,0.00,WeatherDisplay:10.37,2013-01-13 22:27:00,
2013-01-13 17:32:00,61.7,56.5,30.12,North,0,0.0,0.0,83,0.00,CLR,FEW,0.00,WeatherDisplay:10.37,2013-01-13 22:32:00,
2013-01-13 17:37:00,61.7,56.5,30.12,North,0,0.0,0.0,83,0.00,CLR,FEW,0.00,WeatherDisplay:10.37,2013-01-13 22:37:00,
2013-01-13 17:42:00,61.5,56.6,30.12,North,0,0.0,0.0,84,0.00,CLR,FEW,0.00,WeatherDisplay:10.37,2013-01-13 22:42:00,
2013-01-13 17:47:00,61.7,56.8,30.12,North,0,0.0,0.0,84,0.00,CLR,FEW,0.00,WeatherDisplay:10.37,2013-01-13 22:47:00,
2013-01-13 17:52:00,61.5,57.0,30.12,North,0,0.0,0.0,85,0.00,CLR,FEW,0.00,WeatherDisplay:10.37,2013-01-13 22:52:00,
2013-01-13 17:57:00,61.5,57.3,30.12,North,0,0.0,0.0,86,0.00,CLR,FEW,0.00,WeatherDisplay:10.37,2013-01-13 22:57:00,
2013-01-13 18:02:00,61.7,57.8,30.12,North,0,0.0,0.0,87,0.00,CLR,FEW,0.00,WeatherDisplay:10.37,2013-01-13 23:02:00,
2013-01-13 18:07:00,61.7,57.8,30.12,North,0,0.0,0.0,87,0.00,CLR,FEW,0.00,WeatherDisplay:10.37,2013-01-13 23:07:00,
2013-01-13 18:12:00,61.5,57.6,30.12,North,0,0.0,0.0,87,0.00,CLR,FEW,0.00,WeatherDisplay:10.37,2013-01-13 23:12:00,
2013-01-13 18:17:00,61.5,57.6,30.12,North,0,0.0,0.0,87,0.00,CLR,FEW,0.00,WeatherDisplay:10.37,2013-01-13 23:17:00,
2013-01-13 18:22:00,61.3,57.8,30.12,North,0,0.0,0.0,88,0.00,CLR,FEW,0.00,WeatherDisplay:10.37,2013-01-13 23:22:00,
2013-01-13 18:27:00,61.3,57.8,30.12,North,0,0.0,0.0,88,0.00,CLR,FEW,0.00,WeatherDisplay:10.37,2013-01-13 23:27:00,
2013-01-13 18:32:00,61.3,57.8,30.12,North,0,0.0,0.0,88,0.00,CLR,FEW,0.00,WeatherDisplay:10.37,2013-01-13 23:32:00,
2013-01-13 18:37:00,61.3,58.1,30.12,North,0,0.0,0.0,89,0.00,CLR,FEW,0.00,WeatherDisplay:10.37,2013-01-13 23:37:00,
2013-01-13 18:42:00,61.3,58.1,30.12,North,0,0.0,0.0,89,0.00,CLR,FEW,0.00,WeatherDisplay:10.37,2013-01-13 23:42:00,
2013-01-13 18:47:00,61.2,57.9,30.12,North,0,0.0,0.0,89,0.00,CLR,FEW,0.00,WeatherDisplay:10.37,2013-01-13 23:47:00,
2013-01-13 18:52:00,61.2,57.9,30.12,North,0,0.0,0.0,89,0.00,CLR,FEW,0.00,WeatherDisplay:10.37,2013-01-13 23:52:00,
2013-01-13 18:57:00,61.2,58.2,30.12,North,0,0.0,0.0,90,0.00,CLR,FEW,0.00,WeatherDisplay:10.37,2013-01-13 23:57:00,
2013-01-13 19:02:00,61.2,58.2,30.12,North,0,0.0,0.0,90,0.00,CLR,FEW,0.00,WeatherDisplay:10.37,2013-01-14 00:02:00,
2013-01-13 19:07:00,61.0,58.0,30.12,North,0,0.0,0.0,90,0.00,CLR,FEW,0.00,WeatherDisplay:10.37,2013-01-14 00:07:00,
2013-01-13 19:12:00,61.0,58.0,30.12,North,0,0.0,0.0,90,0.00,CLR,FEW,0.00,WeatherDisplay:10.37,2013-01-14 00:12:00,
2013-01-13 19:17:00,61.0,58.3,30.12,North,0,0.0,0.0,91,0.00,CLR,FEW,0.00,WeatherDisplay:10.37,2013-01-14 00:17:00,
2013-01-13 19:22:00,61.0,58.3,30.12,North,0,0.0,0.0,91,0.00,CLR,FEW,0.00,WeatherDisplay:10.37,2013-01-14 00:22:00,
2013-01-13 19:27:00,61.0,58.3,30.12,North,0,0.0,0.0,91,0.00,CLR,FEW,0.00,WeatherDisplay:10.37,2013-01-14 00:27:00,
2013-01-13 19:32:00,61.0,58.3,30.12,North,0,0.0,0.0,91,0.00,CLR,FEW,0.00,WeatherDisplay:10.37,2013-01-14 00:32:00,
2013-01-13 19:37:00,60.8,58.2,30.12,North,0,0.0,0.0,91,0.00,CLR,FEW,0.00,WeatherDisplay:10.37,2013-01-14 00:37:00,
2013-01-13 19:42:00,60.8,58.2,30.12,North,0,0.0,0.0,91,0.00,CLR,FEW,0.00,WeatherDisplay:10.37,2013-01-14 00:42:00,
2013-01-13 19:47:00,60.8,58.2,30.12,North,0,0.0,0.0,91,0.00,CLR,FEW,0.00,WeatherDisplay:10.37,2013-01-14 00:47:00,
2013-01-13 19:52:00,61.0,58.3,30.12,North,0,0.0,0.0,91,0.00,CLR,FEW,0.00,WeatherDisplay:10.37,2013-01-14 00:52:00,
2013-01-13 19:57:00,61.0,58.3,30.12,North,0,0.0,0.0,91,0.00,CLR,FEW,0.00,WeatherDisplay:10.37,2013-01-14 00:57:00,
2013-01-13 20:02:00,61.0,58.3,30.12,North,0,0.0,0.0,91,0.00,CLR,FEW,0.00,WeatherDisplay:10.37,2013-01-14 01:02:00,
2013-01-13 20:07:00,61.0,58.3,30.12,North,0,0.0,0.0,91,0.00,CLR,FEW,0.00,WeatherDisplay:10.37,2013-01-14 01:07:00,
2013-01-13 20:12:00,61.0,58.6,30.12,North,0,0.0,0.0,92,0.00,CLR,FEW,0.00,WeatherDisplay:10.37,2013-01-14 01:12:00,
2013-01-13 20:17:00,61.0,58.6,30.12,North,0,0.0,0.0,92,0.00,CLR,FEW,0.00,WeatherDisplay:10.37,2013-01-14 01:17:00,
2013-01-13 20:22:00,61.0,58.6,30.12,North,0,0.0,0.0,92,0.00,CLR,FEW,0.00,WeatherDisplay:10.37,2013-01-14 01:22:00,
2013-01-13 20:27:00,61.0,58.6,30.12,North,0,0.0,0.0,92,0.00,CLR,FEW,0.00,WeatherDisplay:10.37,2013-01-14 01:27:00,
2013-01-13 20:32:00,60.8,58.5,30.12,North,0,0.0,0.0,92,0.00,CLR,FEW,0.00,WeatherDisplay:10.37,2013-01-14 01:32:00,
2013-01-13 20:37:00,60.6,58.3,30.12,North,0,0.0,0.0,92,0.00,CLR,FEW,0.00,WeatherDisplay:10.37,2013-01-14 01:37:00,
2013-01-13 20:42:00,60.6,58.3,30.12,North,0,0.0,0.0,92,0.00,CLR,FEW,0.00,WeatherDisplay:10.37,2013-01-14 01:42:00,
2013-01-13 20:47:00,60.4,58.1,30.12,North,0,0.0,0.0,92,0.00,CLR,FEW,0.00,WeatherDisplay:10.37,2013-01-14 01:47:00,
2013-01-13 20:52:00,60.4,58.1,30.12,North,0,0.0,0.0,92,0.00,CLR,FEW,0.00,WeatherDisplay:10.37,2013-01-14 01:52:00,
2013-01-13 20:57:00,60.3,57.9,30.09,North,0,0.0,0.0,92,0.00,CLR,FEW,0.00,WeatherDisplay:10.37,2013-01-14 01:57:00,
2013-01-13 21:02:00,60.4,58.1,30.09,North,0,0.0,0.0,92,0.00,CLR,FEW,0.00,WeatherDisplay:10.37,2013-01-14 02:02:00,
2013-01-13 21:07:00,60.4,58.4,30.09,North,0,0.0,0.0,93,0.00,CLR,FEW,0.00,WeatherDisplay:10.37,2013-01-14 02:07:00,
2013-01-13 21:12:00,60.4,58.4,30.12,North,0,0.0,0.0,93,0.00,CLR,FEW,0.00,WeatherDisplay:10.37,2013-01-14 02:12:00,
2013-01-13 21:17:00,60.4,58.4,30.12,North,0,0.0,0.0,93,0.00,CLR,FEW,0.00,WeatherDisplay:10.37,2013-01-14 02:17:00,
2013-01-13 21:22:00,60.4,58.4,30.12,North,0,0.0,0.0,93,0.00,CLR,FEW,0.00,WeatherDisplay:10.37,2013-01-14 02:22:00,
2013-01-13 21:27:00,60.3,58.2,30.12,North,0,0.0,0.0,93,0.00,CLR,FEW,0.00,WeatherDisplay:10.37,2013-01-14 02:27:00,
2013-01-13 21:32:00,60.1,58.0,30.12,North,0,0.0,0.0,93,0.00,CLR,FEW,0.00,WeatherDisplay:10.37,2013-01-14 02:32:00,
2013-01-13 21:37:00,60.1,58.0,30.12,North,0,0.0,0.0,93,0.00,CLR,FEW,0.00,WeatherDisplay:10.37,2013-01-14 02:37:00,
2013-01-13 21:42:00,60.1,58.0,30.12,North,0,0.0,0.0,93,0.00,CLR,FEW,0.00,WeatherDisplay:10.37,2013-01-14 02:42:00,
2013-01-13 21:47:00,60.1,58.0,30.12,North,0,0.0,0.0,93,0.00,CLR,FEW,0.00,WeatherDisplay:10.37,2013-01-14 02:47:00,
2013-01-13 21:52:00,59.9,57.9,30.12,North,0,0.0,0.0,93,0.00,CLR,FEW,0.00,WeatherDisplay:10.37,2013-01-14 02:52:00,
2013-01-13 21:57:00,60.1,58.0,30.12,North,0,0.0,0.0,93,0.00,CLR,FEW,0.00,WeatherDisplay:10.37,2013-01-14 02:57:00,
2013-01-13 22:02:00,60.1,58.0,30.12,North,0,0.0,0.0,93,0.00,CLR,FEW,0.00,WeatherDisplay:10.37,2013-01-14 03:02:00,
2013-01-13 22:07:00,59.9,57.9,30.12,North,0,0.0,0.0,93,0.00,CLR,FEW,0.00,WeatherDisplay:10.37,2013-01-14 03:07:00,
2013-01-13 22:12:00,59.7,57.7,30.12,North,0,0.0,0.0,93,0.00,CLR,FEW,0.00,WeatherDisplay:10.37,2013-01-14 03:12:00,
2013-01-13 22:17:00,59.7,57.7,30.12,North,0,0.0,0.0,93,0.00,CLR,FEW,0.00,WeatherDisplay:10.37,2013-01-14 03:17:00,
2013-01-13 22:22:00,59.5,57.5,30.12,North,0,0.0,0.0,93,0.00,CLR,FEW,0.00,WeatherDisplay:10.37,2013-01-14 03:22:00,
2013-01-13 22:27:00,59.4,57.3,30.12,North,0,0.0,0.0,93,0.00,CLR,FEW,0.00,WeatherDisplay:10.37,2013-01-14 03:27:00,
2013-01-13 22:32:00,59.5,57.8,30.12,North,0,0.0,0.0,94,0.00,CLR,FEW,0.00,WeatherDisplay:10.37,2013-01-14 03:32:00,
2013-01-13 22:37:00,59.7,58.0,30.12,North,0,0.0,0.0,94,0.00,CLR,FEW,0.00,WeatherDisplay:10.37,2013-01-14 03:37:00,
2013-01-13 22:42:00,59.9,58.2,30.15,North,0,0.0,0.0,94,0.00,CLR,FEW,0.00,WeatherDisplay:10.37,2013-01-14 03:42:00,
2013-01-13 22:47:00,59.9,58.2,30.15,North,0,0.0,0.0,94,0.00,CLR,FEW,0.00,WeatherDisplay:10.37,2013-01-14 03:47:00,
2013-01-13 22:52:00,59.9,58.2,30.15,North,0,0.0,0.0,94,0.00,CLR,FEW,0.00,WeatherDisplay:10.37,2013-01-14 03:52:00,
2013-01-13 22:57:00,59.9,58.2,30.15,North,0,0.0,0.0,94,0.00,CLR,FEW,0.00,WeatherDisplay:10.37,2013-01-14 03:57:00,
2013-01-13 23:02:00,59.9,58.2,30.15,North,0,0.0,0.0,94,0.00,CLR,FEW,0.00,WeatherDisplay:10.37,2013-01-14 04:02:00,
2013-01-13 23:07:00,59.7,58.0,30.15,North,0,0.0,0.0,94,0.00,CLR,FEW,0.00,WeatherDisplay:10.37,2013-01-14 04:07:00,
2013-01-13 23:12:00,59.7,58.0,30.15,North,0,0.0,0.0,94,0.00,CLR,FEW,0.00,WeatherDisplay:10.37,2013-01-14 04:12:00,
2013-01-13 23:17:00,59.9,58.2,30.15,North,0,0.0,0.0,94,0.00,CLR,FEW,0.00,WeatherDisplay:10.37,2013-01-14 04:17:00,
2013-01-13 23:22:00,59.9,58.5,30.15,North,0,0.0,0.0,95,0.00,CLR,FEW,0.00,WeatherDisplay:10.37,2013-01-14 04:22:00,
2013-01-13 23:27:00,60.1,58.6,30.15,North,0,0.0,0.0,95,0.00,CLR,FEW,0.00,WeatherDisplay:10.37,2013-01-14 04:27:00,
2013-01-13 23:32:00,60.1,58.6,30.15,North,0,0.0,0.0,95,0.00,CLR,FEW,0.00,WeatherDisplay:10.37,2013-01-14 04:32:00,
2013-01-13 23:37:00,60.1,58.6,30.15,North,0,0.0,0.0,95,0.00,CLR,FEW,0.00,WeatherDisplay:10.37,2013-01-14 04:37:00,
2013-01-13 23:42:00,60.1,58.6,30.15,North,0,0.0,0.0,95,0.00,CLR,FEW,0.00,WeatherDisplay:10.37,2013-01-14 04:42:00,
2013-01-13 23:47:00,59.9,58.5,30.15,North,0,0.0,0.0,95,0.00,CLR,FEW,0.00,WeatherDisplay:10.37,2013-01-14 04:47:00,
2013-01-13 23:52:00,59.9,58.5,30.15,North,0,0.0,0.0,95,0.00,CLR,FEW,0.00,WeatherDisplay:10.37,2013-01-14 04:52:00,
2013-01-13 23:57:00,59.7,58.3,30.15,North,0,0.0,0.0,95,0.00,CLR,FEW,0.00,WeatherDisplay:10.37,2013-01-14 04:57:00,